TimeMDT,TemperatureF,Dew PointF,Humidity,Sea Level PressureIn,VisibilityMPH,Wind Direction,Wind SpeedMPH,Gust SpeedMPH,PrecipitationIn,Events,Conditions,WindDirDegrees,DateUTC
12:53 AM,48.0,36.0,63,29.68,10.0,NW,9.2,-,N/A,,Clear,310,2013-10-08 06:53:00
1:53 AM,45.0,37.9,76,29.68,10.0,Calm,Calm,-,N/A,,Clear,0,2013-10-08 07:53:00
2:53 AM,48.9,35.1,59,29.67,10.0,Variable,3.5,-,N/A,,Clear,0,2013-10-08 08:53:00
3:53 AM,48.9,32.0,52,29.67,10.0,SSW,4.6,-,N/A,,Clear,200,2013-10-08 09:53:00
4:53 AM,43.0,36.0,76,29.72,10.0,NNW,5.8,-,N/A,,Clear,340,2013-10-08 10:53:00
5:53 AM,42.1,36.0,79,29.80,10.0,SSW,8.1,-,N/A,,Clear,200,2013-10-08 11:53:00
6:53 AM,44.1,34.0,68,29.81,10.0,Calm,Calm,-,N/A,,Clear,0,2013-10-08 12:53:00
7:53 AM,44.1,36.0,73,29.83,10.0,SSE,5.8,-,N/A,,Clear,150,2013-10-08 13:53:00
8:53 AM,48.9,39.9,71,29.82,10.0,Calm,Calm,-,N/A,,Clear,0,2013-10-08 14:53:00
9:53 AM,55.0,39.0,55,29.80,10.0,SE,3.5,-,N/A,,Clear,140,2013-10-08 15:53:00
10:53 AM,59.0,32.0,36,29.77,10.0,SSE,4.6,-,N/A,,Clear,150,2013-10-08 16:53:00
11:53 AM,60.1,32.0,35,29.75,10.0,East,6.9,-,N/A,,Clear,80,2013-10-08 17:53:00
12:53 PM,59.0,34.0,39,29.73,10.0,East,8.1,-,N/A,,Clear,90,2013-10-08 18:53:00
1:53 PM,60.1,34.0,38,29.71,10.0,ESE,10.4,-,N/A,,Clear,120,2013-10-08 19:53:00
2:53 PM,61.0,36.0,39,29.70,10.0,SE,9.2,-,N/A,,Clear,140,2013-10-08 20:53:00
3:53 PM,61.0,35.1,38,29.70,10.0,ESE,10.4,17.3,N/A,,Clear,120,2013-10-08 21:53:00
4:53 PM,61.0,35.1,38,29.72,10.0,SE,8.1,-,N/A,,Clear,140,2013-10-08 22:53:00
5:53 PM,57.9,37.0,46,29.76,10.0,Calm,Calm,-,N/A,,Clear,0,2013-10-08 23:53:00
6:53 PM,53.1,39.9,61,29.80,10.0,WNW,8.1,-,N/A,,Mostly Cloudy,300,2013-10-09 00:53:00
7:53 PM,51.1,37.0,59,29.86,10.0,NW,13.8,-,N/A,,Mostly Cloudy,310,2013-10-09 01:53:00
8:53 PM,48.9,36.0,61,29.90,10.0,NW,12.7,-,N/A,,Mostly Cloudy,320,2013-10-09 02:53:00
9:53 PM,46.0,36.0,68,29.92,10.0,WNW,11.5,-,N/A,,Unknown,300,2013-10-09 03:53:00
10:53 PM,48.0,36.0,63,29.93,10.0,WNW,10.4,-,N/A,,Overcast,300,2013-10-09 04:53:00
11:53 PM,48.0,37.0,66,29.94,10.0,West,8.1,-,N/A,,Overcast,280,2013-10-09 05:53:00